CAPE
608 797 803 815 837 681 594 600 512 602 777 937 1045 1177 939 652 566 675 711 707 652 566 618 508 402 368 303 184 176 178 160 82 55 64 44 60 38 39 31 28 40 34 18
940 661 593 795 822 690 650 590 588 527 612 871 944 995 1037 824 880 928 857 650 640 627 758 471 562 481 407 329 293 193 121 86 84 66 64 81 11 22 28 22 8 16 16
980 1012 890 556 497 569 646 621 609 647 606 778 887 944 934 941 749 531 775 778 585 563 875 807 578 464 319 304 246 222 158 125 103 76 64 38 14 16 39 61 19 24 29
1046 1094 1144 1065 718 534 536 591 631 619 720 754 835 892 870 989 701 535 479 624 613 590 763 746 648 571 461 466 348 285 204 163 143 95 35 36 71 15 64 143 161 64 84
1005 1082 1176 1275 1146 892 690 607 619 636 712 702 780 925 1009 959 714 570 454 478 636 631 586 524 479 352 514 502 499 399 301 222 194 146 233 137 103 86 154 122 120 119 127
905 1022 1170 1294 1358 1167 993 787 739 677 681 761 828 944 1093 795 417 480 469 503 595 690 772 638 567 504 384 481 472 442 331 319 286 216 291 207 209 135 366 60 79 93 149
945 1008 1144 1293 1358 1380 1197 1069 891 746 700 745 857 1009 1035 645 563 659 642 488 523 575 655 749 727 721 727 614 591 442 374 401 421 374 322 287 293 235 166 113 83 64 94
1049 1093 1175 1298 1372 1434 1356 1168 1017 832 708 804 897 1004 970 818 802 878 908 393 497 557 614 607 884 951 947 965 965 771 629 546 571 514 406 356 364 295 257 231 215 160 132
1186 1215 1264 1395 1429 1434 1417 1256 1063 885 828 984 1122 1035 950 973 903 965 1037 773 509 609 685 667 658 885 1075 1146 1097 910 790 650 640 655 701 686 665 515 472 482 430 338 260
1305 1329 1397 1444 1456 1398 1375 1290 1140 947 697 1054 1007 1045 1095 1089 1150 1043 1142 1146 812 779 823 894 761 771 1056 1215 1170 1189 1196 974 1012 979 824 819 866 830 821 762 615 571 418
1441 1448 1477 1391 1356 1223 1138 1137 1064 1063 1337 1468 1355 1288 1172 1260 1310 1377 1349 1421 1203 1133 1216 1151 1033 893 752 1017 1398 1352 1311 1070 1080 1048 956 956 932 1010 1015 784 746 671 552
1309 1258 1260 1280 1389 1403 1432 1337 1408 1437 1064 129 1220 1201 1170 1273 1575 1818 1652 1540 1557 1370 1437 1426 1506 1558 1575 1460 1401 1309 1394 1325 1175 1060 1040 1055 1101 1190 1142 1101 854 703 669
1613 1584 1602 1611 1557 1520 1209 1214 1703 1800 1807 1482 1580 1485 1349 1632 1660 1472 1610 2004 2012 1954 1895 1836 1712 1705 1594 1550 1538 1514 1484 1410 1304 1225 1253 1226 1424 1389 1432 1336 1055 974 913
1170 1435 1599 1626 1580 736 434 422 1098 1009 1227 1652 2182 2182 2168 2138 2180 2045 1968 1928 2010 2169 2020 1954 2032 2026 2026 1892 1727 1771 1713 1612 1531 1556 1677 1597 1438 1555 1573 1469 1223 1229 1169
675 940 1397 1372 783 965 1132 947 1114 1342 2100 2250 1869 2355 2430 2560 2626 2580 2555 2493 2475 2553 2579 2578 2183 2051 2201 1917 1833 1777 2013 1866 1863 1993 1942 1879 1709 1810 1521 1347 1296 1334 1251
739 784 687 729 873 973 832 644 767 1952 2637 2353 2490 2689 2806 2820 2837 2866 2814 2795 2837 2855 2838 2788 2537 2360 2551 2300 2124 2358 2314 2240 2239 2195 2129 2075 2050 1874 1754 1503 1414 1345 1255
1147 1162 1295 822 679 955 766 779 1313 1977 2186 2752 3068 2385 1689 1827 2364 2617 2774 2894 2961 2932 2729 2693 2620 2552 2484 2556 2432 2294 2370 2419 2375 2368 2289 2037 2034 1905 1803 1518 1434 1378 1458
1043 1042 1090 1104 840 777 756 734 1189 1927 2185 2045 1966 1787 1628 1686 1880 2020 2070 2601 2857 2820 2754 2895 2880 2798 2665 2555 2636 2433 2412 2575 2580 2531 2244 2035 2042 1923 1804 1519 1388 1368 1421
1131 1030 782 676 673 756 692 811 966 1144 911 735 676 794 1182 1227 1212 1053 1596 2172 2192 2529 2774 2820 2693 2792 2859 2763 2714 2743 2689 2686 2631 2451 2252 1914 1922 1709 1530 1422 1265 1153 1272
743 1040 835 667 520 427 583 578 568 759 553 656 693 652 687 678 602 571 1158 1776 1944 2355 2342 3256 3008 2994 2751 2694 2706 2672 2672 2749 2635 2355 2071 2035 1920 1443 1445 1459 1468 1356 1265
488 685 605 543 606 657 597 519 227 184 146 572 470 370 373 334 299 573 1101 971 1209 1710 2584 3076 3438 3192 3113 2850 2672 2465 2504 2692 2666 2345 1930 1838 1846 1719 1691 1622 1518 1373 1310
356 380 336 305 297 530 609 474 284 239 135 329 223 187 166 216 452 484 559 741 990 1312 2144 2862 3451 3278 2898 2778 2534 2401 2570 2740 2326 2385 2016 1693 1762 1825 1580 1482 1500 1474 1117
233 217 214 245 247 226 449 610 500 354 317 283 105 25 52 162 234 343 419 536 326 614 1252 2471 3136 3047 2861 2588 2182 2212 1795 1551 1171 1359 1322 1194 1217 1195 1287 1259 1200 1055 940
106 98 79 62 81 270 429 581 639 587 472 447 254 61 13 4 5 151 281 622 212 124 729 1186 2555 3010 3119 2493 1741 1434 746 195 188 19 39 127 904 779 642 538 631 621 678
1 38 38 18 37 133 208 564 727 755 640 524 448 268 89 5 0 252 219 116 118 144 162 695 1426 2523 2705 2369 2271 1327 656 203 101 12 4 227 651 496 430 367 364 400 424
0 0 0 0 0 2 52 115 189 527 769 747 615 522 311 23 14 87 2 0 20 180 189 585 1264 1688 2130 2318 1852 1443 656 332 147 134 170 265 250 252 211 250 230 226 157
CIN
-384 -250 -194 -190 -99 -146 -52 -35 -24 -231 -236 -172 -123 -82 -96 -103 -25 -24 -34 -42 -37 -75 -21 -36 -51 -51 -49 -37 -47 -73 -40 -26 -19 -15 -27 -40 -50 -28 -27 -48 -7 -9 -13
-91 -58 -262 -178 -149 -112 -78 -69 -45 -39 -244 -191 -144 -102 -80 -75 -62 -37 -26 -9 -45 -111 -37 -33 -27 -25 -38 -41 -28 -58 -36 -29 -31 -19 -28 -71 -116 -127 -83 -84 -34 -22 -30
-103 -86 -42 -32 -307 -243 -144 -104 -88 -70 -52 -216 -133 -96 -66 -52 -55 -79 -52 -28 -69 -95 -38 -22 -20 -17 -17 -33 -40 -46 -36 -29 -30 -25 -34 -20 -26 -49 -76 -73 -28 -27 -26
-119 -116 -66 -38 -32 -86 -261 -172 -121 -72 -56 -222 -144 -100 -87 -73 -54 -44 -112 -51 -113 -95 -54 -53 -45 -41 -52 -37 -34 -25 -36 -47 -37 -29 -44 -10 -25 -15 -16 -33 -35 -45 -45
-193 -115 -113 -62 -47 -69 -92 -77 -257 -193 -58 -68 -46 -49 -67 -83 -78 -64 -126 -143 -123 -102 -63 -78 -40 -122 -58 -46 -36 -30 -41 -45 -41 -30 -41 -11 -32 -16 -6 -36 -46 -46 -54
-334 -219 -102 -93 -58 -48 -59 -72 -79 -234 -193 -60 -58 -50 -55 -72 -85 -111 -93 -121 -115 -91 -70 -86 -71 -28 -86 -59 -54 -40 -39 -40 -41 -36 -41 -36 -12 -8 -2 -31 -48 -31 -52
-386 -269 -159 -101 -70 -39 -47 -56 -69 -54 -152 -73 -13 -81 -72 -65 -69 -55 -63 -164 -147 -135 -120 -88 -138 -66 -44 -34 -28 -38 -42 -30 -24 -35 -40 -49 -22 -25 -17 -35 -46 -41 -45
-337 -288 -218 -132 -80 -48 -54 -53 -59 -75 -59 -26 -14 -100 -26 -35 -60 -61 -59 -155 -290 -269 -246 -93 -157 -146 -117 -52 -31 -26 -31 -45 -52 -57 -50 -64 -44 -31 -43 -22 -6 -15 -44
-299 -265 -225 -160 -96 -79 -60 -41 -61 -67 -46 -13 -7 -7 -12 -26 -55 -62 -63 -73 -101 -64 -45 -28 -206 -171 -159 -135 -75 -66 -95 -91 -66 -51 -37 -33 -29 -59 -38 -18 -9 -3 -9
-189 -183 -152 -127 -98 -93 -83 -65 -46 -51 -43 -32 -15 -7 -11 -15 -33 -47 -64 -71 -69 -68 -54 -35 -94 -211 -170 -153 -129 -103 -101 -96 -83 -94 -44 -31 -14 -25 -14 -15 -21 -11 -2
-123 -91 -66 -145 -426 -509 -164 -61 -54 -291 -169 -96 -157 -245 -282 -264 -18 -38 -52 -66 -76 -69 -56 -43 -38 -26 -229 -184 -102 -103 -102 -95 -48 -64 -42 -24 -27 -15 -10 -10 -10 -13 -8
-136 -108 -83 -80 -464 -251 -60 -244 -205 -130 -36 -191 -46 -103 -97 -218 -222 -165 -150 -70 -68 -105 -78 -64 -42 -35 -32 -37 -32 -50 -110 -91 -60 -55 -43 -22 -13 -9 -10 -1 -5 -7 -8
-111 -131 -107 -124 -98 -93 -118 -172 -109 -73 -105 -88 -132 -66 -235 -30 -39 -129 -124 -132 -110 -108 -75 -62 -51 -43 -48 -47 -52 -122 -124 -128 -49 -27 -37 -15 -10 -8 -7 -4 -6 -2 -0
-154 -160 -134 -100 -112 -138 -155 -370 -119 -40 -64 -93 -114 -120 -122 -96 -58 -40 -44 -39 -62 -48 -89 -113 -83 -68 -52 -44 -118 -105 -97 -54 -31 -6 -2 -23 -14 -8 -7 -5 -10 -4 -0
-491 -142 -117 -102 -85 -200 -149 -106 -116 -152 -102 -64 -61 -169 -142 -114 -98 -95 -81 -71 -62 -61 -57 -57 -75 -70 -75 -86 -82 -83 -36 -33 -18 -6 -6 -11 -10 -9 -31 -31 -17 -12 -4
-554 -549 -240 -76 -93 -144 -143 -102 -262 -209 -180 -105 -244 -183 -133 -124 -137 -112 -96 -100 -91 -78 -71 -71 -91 -97 -77 -80 -110 -48 -28 -35 -30 -26 -20 -19 -14 -10 -16 -30 -20 -19 -36
-208 -226 -227 -190 -87 -119 -120 -98 -243 -171 -196 -178 -126 -180 -228 -273 -226 -220 -153 -126 -107 -77 -87 -96 -74 -91 -76 -68 -67 -101 -67 -49 -64 -42 -30 -30 -25 -24 -18 -25 -11 -9 -8
-119 -138 -176 -223 -265 -268 -121 -109 -278 -171 -109 -104 -98 -187 -318 -298 -254 -318 -166 -158 -110 -111 -97 -89 -74 -66 -88 -95 -62 -56 -21 -28 -62 -41 -42 -103 -62 -26 -29 -38 -50 -38 -12
-84 -120 -114 -105 -172 -130 -81 -337 -291 -281 -447 -452 -514 -439 -393 -429 -420 -403 -230 -184 -147 -122 -87 -80 -121 -107 -96 -64 -67 -35 -18 -11 -12 -24 -13 -61 -34 -28 -36 -34 -60 -63 -37
-61 -81 -112 -135 -90 -87 -238 -276 -314 -370 -455 -465 -441 -467 -490 -485 -475 -469 -274 -148 -132 -103 -50 -47 -68 -65 -59 -56 -47 -48 -14 -9 -12 -28 -96 -37 -12 -27 -26 -24 -20 -5 -29
-51 -43 -41 -42 -162 -187 -190 -172 -132 -50 -342 -426 -541 -527 -555 -591 -577 -439 -286 -289 -223 -135 -49 -37 -40 -26 -43 -66 -87 -87 -67 -11 -3 -13 -15 -7 -21 -17 -10 -7 -5 -22 -25
-31 -44 -28 -28 -33 -141 -164 -162 -29 -25 -303 -452 -639 -639 -622 -551 -411 -403 -385 -317 -210 -132 -37 -9 -0 -0 -36 -45 -66 -40 -34 -7 -0 -0 -0 -5 -19 -11 -18 -12 -18 -15 -14
-11 -24 -20 -15 -20 -13 -120 -124 -135 -144 -184 -371 -485 -518 -664 -575 -491 -381 -334 -295 -389 -254 -105 -1 -0 -0 -2 -22 -75 -54 -36 -59 -53 -0 -0 -0 -9 -19 -28 -26 -26 -33 -41
-19 -32 -27 -12 -23 -38 -88 -104 -76 -86 -99 -113 -152 -205 -214 -147 -518 -465 -365 -243 -401 -430 -170 -80 -0 -0 -0 -1 -51 -104 -125 -129 -59 -166 -63 -183 -2 -43 -67 -67 -47 -45 -33
-1 -3 -20 -52 -62 -27 -20 -31 -28 -55 -53 -64 -87 -131 -148 -145 -0 -346 -328 -386 -357 -319 -318 -141 -28 -0 -0 -11 -17 -45 -56 -61 -82 -171 -189 -21 -2 -43 -100 -75 -36 -42 -25
-0 -0 -0 -0 -0 -3 -27 -7 -18 -21 -34 -44 -53 -62 -85 -107 -158 -319 -117 -0 -229 -260 -291 -147 -24 -8 -1 -0 -14 -29 -97 -129 -194 -298 -69 -64 -66 -108 -58 -35 -41 -24 -25
Wind_Speed
34 39 36 33 29 21 23 23 17 14 11 8 9 5 2 3 4 5 3 0 3 5 4 3 5 5 7 7 8 5 8 nan nan nan nan nan nan nan nan nan nan nan nan
21 29 31 31 31 29 25 24 24 17 13 10 11 13 8 6 4 2 2 1 3 7 6 5 5 6 7 7 8 6 6 nan nan nan nan nan nan nan nan nan nan nan nan
22 24 32 31 28 29 27 29 27 25 19 16 13 18 15 14 11 8 6 2 5 8 7 6 6 7 7 5 7 6 6 7 9 nan nan nan nan nan nan nan nan nan nan
19 20 31 31 30 27 24 24 27 25 23 17 15 6 11 9 4 5 8 7 7 9 7 7 6 6 5 5 5 5 4 7 8 nan nan nan nan nan nan 10 12 nan nan
18 31 35 38 33 33 31 26 27 25 23 21 15 6 8 9 9 8 8 9 9 10 9 8 6 4 5 5 7 7 7 6 7 10 10 11 11 nan 10 7 10 9 13
28 29 28 31 33 33 32 23 21 23 24 20 17 12 6 10 10 8 6 5 7 9 8 8 7 6 6 6 5 6 7 6 6 9 12 13 13 12 11 nan nan nan 10
22 26 27 28 31 34 34 25 22 19 21 24 19 16 12 13 11 11 10 8 7 7 3 6 8 8 7 6 8 9 8 8 7 9 10 11 12 12 10 9 nan nan nan
17 20 25 23 27 37 41 32 27 21 19 21 20 15 13 12 13 14 13 10 9 8 8 6 6 7 10 10 10 9 7 9 8 9 10 9 10 12 11 11 11 9 10
17 19 21 20 24 34 42 39 31 21 17 18 17 15 14 13 10 12 15 10 9 9 9 7 4 3 7 8 10 8 6 7 7 8 9 9 8 11 9 9 11 10 4
17 15 16 18 25 32 34 36 29 21 18 13 15 17 18 18 13 13 10 10 8 7 7 6 4 3 5 6 7 5 3 5 1 6 8 7 10 11 10 10 9 10 8
9 8 11 17 23 26 26 26 24 33 40 22 6 11 17 14 14 13 9 8 7 6 4 5 5 3 4 6 8 5 1 8 10 6 7 6 11 12 10 9 9 9 11
16 19 20 24 19 19 18 23 26 39 43 6 7 1 4 12 16 13 9 6 3 4 1 2 1 1 2 6 7 3 3 2 5 5 8 7 12 11 7 7 11 13 15
20 23 28 26 19 17 21 27 34 32 19 12 4 3 7 12 12 12 11 8 4 3 5 2 5 6 4 2 3 3 4 2 3 3 6 7 10 11 10 12 12 13 15
19 24 32 32 25 22 29 31 33 28 15 5 4 3 9 12 14 13 13 9 7 7 4 4 5 4 4 4 5 5 5 5 1 2 5 5 7 8 10 10 12 15 17
21 26 35 36 32 28 28 26 24 18 19 8 12 15 17 14 18 17 14 11 9 9 7 6 4 2 2 3 1 3 5 2 1 3 3 3 6 10 8 7 9 12 14
29 31 34 34 29 26 22 22 18 22 27 21 23 21 19 15 16 15 15 12 10 10 13 10 6 5 8 5 5 5 4 4 5 4 5 4 7 4 6 10 10 11 12
23 28 32 30 39 37 38 33 34 21 33 34 29 25 20 18 17 21 19 15 13 14 10 10 11 8 8 6 6 8 7 8 8 9 11 12 11 12 11 9 6 6 8
35 35 35 31 33 32 25 23 21 35 35 41 37 30 27 33 22 37 28 23 16 13 11 11 13 12 10 10 10 10 10 9 8 10 12 14 14 15 16 15 15 13 12
30 31 35 38 33 35 32 29 26 27 35 39 37 29 30 33 32 22 28 27 21 17 16 18 16 13 8 15 15 19 17 13 12 14 15 14 16 17 19 17 16 15 15
33 32 33 39 41 37 39 31 32 30 27 35 35 42 42 38 33 29 30 32 30 27 23 20 21 18 17 28 21 25 26 22 23 24 23 24 25 24 23 20 20 19 16
38 37 37 35 34 40 40 35 33 36 37 39 38 38 40 38 39 36 34 33 33 31 30 27 24 24 27 35 43 42 37 35 31 31 32 32 32 32 27 23 27 25 28
39 41 40 36 34 35 36 36 37 36 39 42 41 39 43 45 47 44 42 39 35 34 34 36 44 43 44 51 56 59 57 51 44 44 40 40 43 38 32 30 25 30 32
39 43 45 40 41 41 42 36 33 44 44 42 43 nan nan 48 50 50 49 47 45 40 38 43 49 49 53 50 56 60 68 65 55 46 48 46 46 52 49 37 27 31 34
37 nan nan nan nan 41 41 38 31 41 49 45 48 nan nan nan nan 49 47 45 45 46 42 45 48 52 52 48 47 55 75 49 40 nan nan 64 56 56 57 46 36 29 31
nan nan nan nan nan 37 40 42 40 43 42 46 50 50 nan nan nan 44 48 47 44 44 40 39 42 45 47 47 46 47 59 50 40 nan nan 34 40 36 44 52 39 38 41
nan nan nan nan nan nan nan 38 43 41 34 34 42 46 50 nan nan nan nan nan nan 39 35 26 31 35 34 43 41 47 53 50 53 37 32 34 22 15 13 16 24 31 36
Wind_Direction
36 30 20 15 13 19 21 20 16 13 347 306 291 248 138 236 183 136 124 196 292 302 320 327 306 351 341 347 345 319 345 nan nan nan nan nan nan nan nan nan nan nan nan
30 24 22 14 9 6 16 17 21 19 14 352 278 260 234 198 201 180 183 287 266 276 279 296 302 319 303 328 340 320 288 nan nan nan nan nan nan nan nan nan nan nan nan
26 7 6 13 11 10 10 8 11 13 9 355 297 243 236 222 215 205 211 240 278 276 282 282 284 307 306 332 336 351 340 340 331 nan nan nan nan nan nan nan nan nan nan
22 0 357 15 16 12 359 3 1 7 8 350 345 296 261 279 283 254 234 242 262 271 278 283 297 304 297 316 342 346 351 324 344 nan nan nan nan nan nan 335 328 nan nan
16 22 15 17 24 10 4 356 352 360 3 2 352 330 270 284 284 262 262 253 241 241 258 275 277 279 270 315 329 329 335 333 322 321 327 352 347 nan 358 356 346 337 356
30 27 22 15 17 17 4 358 351 351 350 353 359 346 309 279 281 295 292 265 239 206 231 267 275 276 279 296 308 319 324 328 326 323 329 328 332 331 351 nan nan nan 327
5 3 16 7 2 3 3 352 344 348 345 343 348 354 343 309 314 299 289 279 258 231 218 267 281 280 295 290 288 293 302 307 321 336 340 338 349 327 319 321 nan nan nan
335 354 4 6 357 351 351 349 347 345 351 343 343 345 343 318 303 299 279 263 259 257 249 266 282 300 288 290 290 291 301 308 326 337 327 332 343 333 347 324 321 327 304
308 326 337 5 344 344 345 346 343 339 337 334 320 317 317 321 311 291 284 274 263 247 264 278 292 290 284 293 294 295 315 312 328 339 332 335 318 324 319 323 335 338 301
303 336 345 340 341 339 332 330 335 325 287 286 311 323 327 321 311 281 275 277 268 269 269 275 278 258 264 294 299 292 338 305 6 354 340 344 331 327 313 313 321 326 340
310 293 282 308 322 314 322 313 302 288 288 212 261 338 323 313 308 300 296 289 261 252 249 260 268 259 264 264 279 295 328 312 46 6 360 12 339 312 289 294 303 316 317
230 247 266 292 296 304 314 325 325 315 300 212 113 324 304 294 292 305 293 280 290 241 241 261 326 323 264 240 259 219 161 23 31 8 360 8 345 357 314 315 333 329 327
243 264 278 290 308 294 317 325 330 340 332 324 41 43 295 280 276 273 276 279 280 215 135 81 50 51 65 65 86 143 140 88 92 6 7 13 2 14 17 4 357 2 352
266 277 281 290 293 300 317 320 325 343 353 330 5 320 249 256 253 249 240 228 224 218 169 114 89 62 39 63 94 119 124 139 101 28 26 15 19 19 5 355 13 359 360
289 287 287 298 309 309 305 319 320 335 325 299 293 277 270 264 252 251 243 229 223 234 229 219 215 207 259 247 228 186 160 190 138 32 32 21 19 11 353 334 355 4 10
272 287 293 303 305 310 319 312 300 298 298 286 278 283 280 271 276 265 249 244 237 241 243 244 236 245 227 236 304 288 277 302 314 314 330 322 325 342 346 339 327 342 355
290 287 291 287 293 294 288 277 280 271 272 260 259 263 266 256 259 262 252 233 217 226 244 247 252 245 238 271 312 325 271 279 296 317 326 322 320 314 312 321 322 340 350
275 284 288 288 296 293 296 301 284 259 260 253 253 256 259 269 274 251 236 234 230 233 230 244 264 268 270 324 317 301 273 276 297 311 309 307 309 308 308 310 314 320 314
270 275 276 281 290 289 285 280 284 269 253 238 242 242 253 245 245 247 230 245 242 241 245 259 261 269 267 284 292 277 269 263 256 254 260 272 274 283 299 296 303 305 304
259 257 266 277 287 286 285 281 275 270 256 229 256 264 273 268 261 249 243 244 250 245 252 249 262 273 266 267 274 274 256 255 253 256 261 274 269 276 284 288 288 285 283
259 260 261 268 272 278 284 285 280 279 276 271 270 267 262 257 261 257 254 249 240 241 242 256 252 257 262 261 270 275 261 259 265 269 268 268 278 273 275 279 278 282 274
256 257 262 266 267 274 274 278 277 274 272 275 276 274 271 266 257 257 256 253 246 244 243 248 253 256 257 264 272 276 265 257 253 251 255 259 270 267 267 268 270 271 266
258 266 268 265 269 274 276 268 271 270 269 265 268 nan nan 265 269 265 263 262 262 255 247 252 256 260 264 266 281 277 270 268 255 252 257 247 253 262 261 254 248 267 266
260 nan nan nan nan 276 277 278 263 264 267 264 263 nan nan nan nan 260 262 259 261 266 258 256 258 258 261 265 267 276 275 275 305 nan nan 269 261 256 260 248 251 260 269
nan nan nan nan nan 271 271 272 271 263 257 258 259 261 nan nan nan 260 255 257 261 266 263 261 262 259 258 260 266 268 284 294 315 nan nan 300 270 261 262 256 260 264 274
nan nan nan nan nan nan nan 271 276 274 265 257 252 254 254 nan nan nan nan nan nan 260 262 264 266 262 254 251 254 265 274 278 289 304 309 314 332 287 276 270 268 268 270